Location: Innerarity Island Observatory
(30.3139°N, 87.4867°W)
Time: 22:33:24
(UTC-06:00)

OPAL - Visible Passes

Search period start: 24 February 2017 00:00
Search period end: 06 March 2017 00:00
Orbit: 744 x 795 km, 100.2° (Epoch: 23 February)

Date Brightness Start Highest point End Pass type
(mag) Time Alt. Az. Time Alt. Az. Time Alt. Az.
24 Feb 7.9 04:07:43 10° NNE 04:12:51 62° ESE 04:14:47 37° SSE visible
24 Feb 9.2 05:48:56 10° NW 05:51:06 13° WNW 05:53:16 10° W visible
25 Feb 9.5 03:33:04 10° NE 03:37:18 25° E 03:39:15 20° SE visible
25 Feb 8.3 05:11:38 10° N 05:16:03 29° WNW 05:19:34 14° WSW visible
26 Feb 7.4 04:35:38 10° N 04:40:47 70° WNW 04:44:02 23° SSW visible
27 Feb 8.3 04:00:22 10° NNE 04:05:21 48° ESE 04:08:31 21° SSE visible
27 Feb 9.0 05:40:41 10° NNW 05:43:44 16° WNW 05:46:47 10° WSW visible
28 Feb 9.8 03:26:02 10° NE 03:29:45 20° E 03:33:01 11° SE visible
28 Feb 8.0 05:03:56 10° N 05:08:38 36° WNW 05:13:15 10° SW visible
01 Mar 7.4 04:28:08 10° NNE 04:33:19 88° WNW 04:37:50 13° SSW visible
02 Mar 8.8 03:53:04 10° NNE 03:57:50 37° E 04:02:21 11° SSE visible
02 Mar 8.8 05:32:42 10° NNW 05:36:22 20° WNW 05:39:59 10° WSW visible
03 Mar 10.2 03:19:13 10° ENE 03:22:11 15° E 03:25:06 10° SE visible
03 Mar 7.7 04:56:18 10° N 05:01:11 46° WNW 05:06:01 10° SW visible
04 Mar 7.6 04:20:42 10° NNE 04:25:50 73° ESE 04:30:53 10° S visible
05 Mar 9.3 03:45:52 10° NE 03:50:18 29° E 03:54:40 10° SSE visible
05 Mar 8.5 05:24:51 10° NNW 05:28:58 25° WNW 05:33:02 10° WSW visible
